O3B FM11 (40349 NORAD) Tracking and Keplerian Element Data

This shows tracking and keplerian element data for the satellite.

Feedback or suggestion? Click here.




ElementValue
Catalog40349
NameO3B FM11
Epoch Orbit7159
Epoch Day322.48757569
Epoch Year2018
RAAN18.7138
Inclination0.0417
Eccentricity0.000323
Argument of Perigee211.1513
Mean Anonmoly130.1134
Mean Motion5.00115857
Decay Rate-1.7E-07
L11 40349U 14083B 18322.48757569 -.00000017 00000-0 00000-0 0 9992
L22 40349 0.0417 18.7138 0003230 211.1513 130.1134 5.00115857 71591

Live tracking and technical data element details for O3B FM11 (NORAD 40349). O3B FM11 can be tracked NOW for your location showing map with azimuth and elevation plus other details from your city location.

Track the satellite on the map from your city or location and see movement details for azimuth, elevation, latitude, longitude, range, height, and movement on the map or in text.







IsCatalogInMostPopularTable: catalog: 40349, numindb: 92
Update: records affected: 1



GetName: 40349 O3B FM11

Hit Count: updated at: Wed, 21 Nov 2018 05:25:07 GMT